| time (UTC) | temp F | wind direction | speed MPH | gust MPH | rain 1hr in | rain 24hr in | rain mn in | humidity % | barometer mb |
| 20260904100016 | 81 | 180 | 3.0 | 8.0 | 0.00 | 0.00 | 0.00 | 81 | 1014.1 |
| 20260904095516 | 81 | 180 | 2.0 | 7.0 | 0.00 | 0.00 | 0.00 | 81 | 1014.3 |
| 20260904095016 | 81 | 180 | 2.0 | 5.0 | 0.00 | 0.00 | 0.00 | 81 | 1014.2 |
| 20260904094516 | 81 | 203 | 2.0 | 5.0 | 0.00 | 0.00 | 0.00 | 81 | 1014.3 |
| 20260904094016 | 81 | 180 | 3.0 | 9.0 | 0.00 | 0.00 | 0.00 | 80 | 1014.2 |
| 20260904093516 | 81 | 203 | 2.0 | 7.0 | 0.00 | 0.00 | 0.00 | 80 | 1014.1 |
| 20260904093016 | 81 | 203 | 3.0 | 9.0 | 0.00 | 0.00 | 0.00 | 80 | 1014.1 |
| 20260904092516 | 81 | 225 | 4.0 | 14.0 | 0.00 | 0.00 | 0.00 | 80 | 1014.1 |
| 20260904092016 | 81 | 248 | 2.0 | 12.0 | 0.00 | 0.00 | 0.00 | 80 | 1014.0 |
| 20260904091516 | 81 | 203 | 4.0 | 10.0 | 0.00 | 0.00 | 0.00 | 80 | 1014.2 |
| 20260904091016 | 81 | 180 | 3.0 | 10.0 | 0.00 | 0.00 | 0.00 | 80 | 1014.3 |
| 20260904090516 | 81 | 203 | 4.0 | 11.0 | 0.00 | 0.00 | 0.00 | 80 | 1014.4 |
| 20260904090016 | 81 | 225 | 3.0 | 9.0 | 0.00 | 0.00 | 0.00 | 80 | 1014.3 |
| 20260904085516 | 81 | 203 | 3.0 | 8.0 | 0.00 | 0.00 | 0.00 | 80 | 1014.2 |
| 20260904085016 | 81 | 180 | 3.0 | 9.0 | 0.00 | 0.00 | 0.00 | 80 | 1014.1 |
| 20260904084518 | 81 | 203 | 3.0 | 9.0 | 0.00 | 0.00 | 0.00 | 80 | 1014.2 |
| 20260904084016 | 81 | 203 | 2.0 | 5.0 | 0.00 | 0.00 | 0.00 | 80 | 1014.3 |
| 20260904083516 | 81 | 203 | 2.0 | 9.0 | 0.00 | 0.00 | 0.00 | 80 | 1014.2 |
| 20260904083016 | 81 | 180 | 3.0 | 9.0 | 0.00 | 0.00 | 0.00 | 80 | 1014.3 |
| 20260904082516 | 81 | 203 | 4.0 | 10.0 | 0.00 | 0.00 | 0.00 | 80 | 1014.3 |
| 20260904082015 | 81 | 180 | 4.0 | 13.0 | 0.00 | 0.00 | 0.00 | 80 | 1014.3 |
| 20260904081515 | 81 | 203 | 3.0 | 8.0 | 0.00 | 0.00 | 0.00 | 80 | 1014.3 |
| 20260904081016 | 81 | 225 | 2.0 | 10.0 | 0.00 | 0.00 | 0.00 | 80 | 1014.3 |
| 20260904080516 | 81 | 203 | 4.0 | 12.0 | 0.00 | 0.00 | 0.00 | 80 | 1014.3 |
| 20260904080015 | 81 | 203 | 4.0 | 14.0 | 0.00 | 0.00 | 0.00 | 80 | 1014.3 |
| 20260904075515 | 81 | 203 | 5.0 | 11.0 | 0.00 | 0.00 | 0.00 | 80 | 1014.3 |
| 20260904075016 | 81 | 180 | 4.0 | 10.0 | 0.00 | 0.00 | 0.00 | 80 | 1014.3 |
| 20260904074516 | 81 | 180 | 5.0 | 13.0 | 0.00 | 0.00 | 0.00 | 80 | 1014.2 |
| 20260904074015 | 81 | 180 | 4.0 | 11.0 | 0.00 | 0.00 | 0.00 | 80 | 1014.1 |
| 20260904073515 | 81 | 180 | 4.0 | 11.0 | 0.00 | 0.00 | 0.00 | 79 | 1014.2 |
| 20260904073015 | 81 | 180 | 4.0 | 11.0 | 0.00 | 0.00 | 0.00 | 79 | 1014.2 |
| 20260904072515 | 81 | 180 | 4.0 | 11.0 | 0.00 | 0.00 | 0.00 | 79 | 1014.2 |
| 20260904072015 | 81 | 180 | 4.0 | 9.0 | 0.00 | 0.00 | 0.00 | 79 | 1014.4 |
| 20260904071556 | 81 | 203 | 3.0 | 8.0 | 0.00 | 0.00 | 0.00 | 79 | 1014.4 |
| 20260904071016 | 81 | 248 | 3.0 | 8.0 | 0.00 | 0.00 | 0.00 | 79 | 1014.6 |
| 20260904070536 | 81 | 225 | 3.0 | 10.0 | 0.00 | 0.00 | 0.00 | 79 | 1014.5 |
| 20260904070015 | 81 | 158 | 2.0 | 7.0 | 0.00 | 0.00 | 0.00 | 79 | 1014.6 |
| 20260904065516 | 81 | 180 | 4.0 | 11.0 | 0.00 | 0.00 | 0.00 | 79 | 1014.5 |
| 20260904065015 | 81 | 158 | 3.0 | 8.0 | 0.00 | 0.00 | 0.00 | 79 | 1014.6 |
| 20260904064516 | 81 | 158 | 3.0 | 9.0 | 0.00 | 0.00 | 0.00 | 78 | 1014.5 |
| 20260904064015 | 81 | 158 | 4.0 | 9.0 | 0.00 | 0.00 | 0.00 | 78 | 1014.6 |
| 20260904063516 | 81 | 203 | 2.0 | 8.0 | 0.00 | 0.00 | 0.00 | 78 | 1014.6 |
| 20260904063016 | 81 | 203 | 3.0 | 8.0 | 0.00 | 0.00 | 0.00 | 78 | 1014.5 |
| 20260904062515 | 81 | 180 | 5.0 | 10.0 | 0.00 | 0.00 | 0.00 | 78 | 1014.5 |
| 20260904062016 | 81 | 158 | 5.0 | 12.0 | 0.00 | 0.00 | 0.00 | 78 | 1014.5 |
| 20260904061515 | 81 | 203 | 5.0 | 17.0 | 0.00 | 0.00 | 0.00 | 78 | 1014.6 |
| 20260904061015 | 81 | 180 | 5.0 | 14.0 | 0.00 | 0.00 | 0.00 | 78 | 1014.4 |
| 20260904060515 | 81 | 180 | 5.0 | 12.0 | 0.00 | 0.00 | 0.00 | 78 | 1014.6 |
| 20260904060015 | 81 | 180 | 5.0 | 12.0 | 0.00 | 0.00 | 0.00 | 78 | 1014.6 |
| 20260904055515 | 81 | 158 | 6.0 | 16.0 | 0.00 | 0.00 | 0.00 | 78 | 1014.7 |
| 20260904055015 | 81 | 158 | 4.0 | 12.0 | 0.00 | 0.00 | 0.00 | 78 | 1014.7 |
| 20260904054515 | 81 | 180 | 3.0 | 9.0 | 0.00 | 0.00 | 0.00 | 78 | 1014.7 |
| 20260904054038 | 81 | 158 | 3.0 | 9.0 | 0.00 | 0.00 | 0.00 | 78 | 1014.5 |
| 20260904053515 | 81 | 158 | 3.0 | 9.0 | 0.00 | 0.00 | 0.00 | 78 | 1014.7 |
| 20260904053055 | 81 | 158 | 5.0 | 12.0 | 0.00 | 0.00 | 0.00 | 78 | 1014.5 |
| 20260904052536 | 81 | 158 | 3.0 | 8.0 | 0.00 | 0.00 | 0.00 | 77 | 1014.4 |
| 20260904052015 | 81 | 158 | 4.0 | 11.0 | 0.00 | 0.00 | 0.00 | 77 | 1014.3 |
| 20260904051515 | 81 | 158 | 4.0 | 11.0 | 0.00 | 0.00 | 0.00 | 77 | 1014.4 |
| 20260904051015 | 81 | 158 | 6.0 | 12.0 | 0.00 | 0.00 | 0.00 | 77 | 1014.3 |
| 20260904050516 | 81 | 158 | 5.0 | 14.0 | 0.00 | 0.00 | 0.00 | 77 | 1014.3 |
| 20260904050015 | 81 | 158 | 6.0 | 15.0 | 0.00 | 0.00 | 0.00 | 77 | 1014.2 |
| 20260904045536 | 81 | 158 | 6.0 | 12.0 | 0.00 | 0.00 | 0.00 | 77 | 1014.2 |
| 20260904045016 | 81 | 158 | 5.0 | 14.0 | 0.00 | 0.00 | 0.00 | 77 | 1014.2 |
| 20260904044516 | 81 | 158 | 6.0 | 13.0 | 0.00 | 0.00 | 0.00 | 77 | 1014.2 |
| 20260904044016 | 81 | 135 | 6.0 | 14.0 | 0.00 | 0.00 | 0.00 | 76 | 1014.3 |
| 20260904043516 | 81 | 158 | 6.0 | 12.0 | 0.00 | 0.00 | 0.00 | 76 | 1014.2 |
| 20260904043016 | 81 | 158 | 3.0 | 7.0 | 0.00 | 0.00 | 0.00 | 76 | 1014.2 |
| 20260904042516 | 81 | 158 | 3.0 | 10.0 | 0.00 | 0.00 | 0.00 | 76 | 1014.2 |
| 20260904042016 | 82 | 135 | 4.0 | 10.0 | 0.00 | 0.00 | 0.00 | 76 | 1014.3 |
| 20260904041516 | 82 | 158 | 6.0 | 16.0 | 0.00 | 0.00 | 0.00 | 76 | 1014.2 |
| 20260904041016 | 82 | 158 | 5.0 | 13.0 | 0.00 | 0.00 | 0.00 | 75 | 1014.3 |
| 20260904040516 | 82 | 135 | 5.0 | 12.0 | 0.00 | 0.00 | 0.00 | 75 | 1014.2 |
| 20260904040016 | 82 | 135 | 5.0 | 11.0 | 0.00 | 0.00 | 0.00 | 75 | 1014.2 |
| 20260904035516 | 82 | 135 | 4.0 | 10.0 | 0.00 | 0.00 | 0.00 | 74 | 1014.3 |
| 20260904035016 | 82 | 135 | 5.0 | 14.0 | 0.00 | 0.00 | 0.00 | 74 | 1014.2 |
| 20260904034516 | 82 | 158 | 5.0 | 10.0 | 0.00 | 0.00 | 0.00 | 74 | 1014.2 |
| 20260904034036 | 82 | 158 | 3.0 | 9.0 | 0.00 | 0.00 | 0.00 | 73 | 1014.1 |
| 20260904033516 | 82 | 135 | 5.0 | 13.0 | 0.00 | 0.00 | 0.00 | 73 | 1014.1 |
| 20260904033016 | 82 | 135 | 4.0 | 9.0 | 0.00 | 0.00 | 0.00 | 72 | 1014.0 |
| 20260904032536 | 82 | 135 | 4.0 | 9.0 | 0.00 | 0.00 | 0.00 | 72 | 1014.0 |
| 20260904032016 | 82 | 135 | 3.0 | 9.0 | 0.00 | 0.00 | 0.00 | 71 | 1013.9 |
| 20260904031516 | 83 | 90 | 3.0 | 6.0 | 0.00 | 0.00 | 0.00 | 71 | 1013.9 |
| 20260904031016 | 83 | 158 | 3.0 | 8.0 | 0.00 | 0.00 | 0.00 | 71 | 1014.0 |
| 20260904030516 | 83 | 158 | 4.0 | 13.0 | 0.00 | 0.00 | 0.00 | 71 | 1013.8 |
| 20260904030016 | 83 | 135 | 6.0 | 12.0 | 0.00 | 0.00 | 0.00 | 71 | 1013.9 |
| 20260904025516 | 83 | 135 | 6.0 | 13.0 | 0.00 | 0.00 | 0.00 | 71 | 1013.8 |
| 20260904025016 | 83 | 135 | 4.0 | 9.0 | 0.00 | 0.00 | 0.00 | 70 | 1013.8 |
| 20260904024516 | 83 | 158 | 4.0 | 12.0 | 0.00 | 0.00 | 0.00 | 70 | 1013.6 |
| 20260904024016 | 83 | 135 | 5.0 | 13.0 | 0.00 | 0.00 | 0.00 | 70 | 1013.6 |
| 20260904023517 | 83 | 135 | 4.0 | 10.0 | 0.00 | 0.00 | 0.00 | 69 | 1013.7 |
| 20260904023036 | 83 | 135 | 4.0 | 10.0 | 0.00 | 0.00 | 0.00 | 69 | 1013.6 |
| 20260904022516 | 83 | 158 | 7.0 | 15.0 | 0.00 | 0.00 | 0.00 | 69 | 1013.6 |
| 20260904022016 | 84 | 135 | 6.0 | 12.0 | 0.00 | 0.00 | 0.00 | 68 | 1013.4 |
| 20260904021516 | 84 | 135 | 4.0 | 10.0 | 0.00 | 0.00 | 0.00 | 68 | 1013.3 |
| 20260904021021 | 84 | 135 | 6.0 | 12.0 | 0.00 | 0.00 | 0.00 | 68 | 1013.3 |
| 20260904020516 | 84 | 135 | 5.0 | 15.0 | 0.00 | 0.00 | 0.00 | 67 | 1013.2 |
| 20260904020016 | 84 | 135 | 7.0 | 16.0 | 0.00 | 0.00 | 0.00 | 67 | 1013.1 |
| 20260904015516 | 84 | 158 | 5.0 | 11.0 | 0.00 | 0.00 | 0.00 | 67 | 1013.0 |
| 20260904015016 | 84 | 135 | 4.0 | 10.0 | 0.00 | 0.00 | 0.00 | 66 | 1013.0 |
| 20260904014515 | 84 | 135 | 7.0 | 14.0 | 0.00 | 0.00 | 0.00 | 66 | 1013.0 |
| 20260904014016 | 84 | 135 | 5.0 | 11.0 | 0.00 | 0.00 | 0.00 | 66 | 1013.0 |
| 20260904013515 | 84 | 113 | 4.0 | 9.0 | 0.00 | 0.00 | 0.00 | 65 | 1013.0 |
| 20260904013016 | 85 | 113 | 3.0 | 6.0 | 0.00 | 0.00 | 0.00 | 65 | 1012.9 |
| 20260904012515 | 85 | 113 | 3.0 | 9.0 | 0.00 | 0.00 | 0.00 | 65 | 1013.0 |
| 20260904012016 | 85 | 135 | 3.0 | 8.0 | 0.00 | 0.00 | 0.00 | 65 | 1013.0 |
| 20260904011516 | 85 | 135 | 3.0 | 8.0 | 0.00 | 0.00 | 0.00 | 65 | 1012.9 |
| 20260904011015 | 85 | 135 | 4.0 | 10.0 | 0.00 | 0.00 | 0.00 | 65 | 1012.7 |
| 20260904010516 | 85 | 135 | 6.0 | 13.0 | 0.00 | 0.00 | 0.00 | 64 | 1012.6 |
| 20260904010015 | 85 | 135 | 6.0 | 12.0 | 0.00 | 0.00 | 0.00 | 64 | 1012.6 |
| 20260904005535 | 86 | 113 | 5.0 | 11.0 | 0.00 | 0.00 | 0.00 | 64 | 1012.7 |
| 20260904005015 | 86 | 113 | 5.0 | 13.0 | 0.00 | 0.00 | 0.00 | 64 | 1012.8 |
| 20260904004521 | 86 | 90 | 5.0 | 11.0 | 0.00 | 0.00 | 0.00 | 64 | 1012.8 |
| 20260904004016 | 86 | 135 | 6.0 | 13.0 | 0.00 | 0.00 | 0.00 | 63 | 1012.8 |
| 20260904003516 | 87 | 135 | 6.0 | 13.0 | 0.00 | 0.00 | 0.00 | 63 | 1012.7 |
| 20260904003016 | 87 | 135 | 6.0 | 13.0 | 0.00 | 0.00 | 0.00 | 63 | 1012.6 |
| 20260904002515 | 87 | 113 | 6.0 | 14.0 | 0.00 | 0.00 | 0.00 | 62 | 1012.7 |
| 20260904002016 | 87 | 135 | 6.0 | 13.0 | 0.00 | 0.00 | 0.00 | 62 | 1012.7 |
| 20260904001515 | 88 | 135 | 6.0 | 15.0 | 0.00 | 0.00 | 0.00 | 62 | 1012.7 |
| 20260904001036 | 88 | 135 | 5.0 | 14.0 | 0.00 | 0.00 | 0.00 | 62 | 1012.8 |
| 20260904000516 | 88 | 135 | 5.0 | 13.0 | 0.00 | 0.00 | 0.00 | 62 | 1012.8 |
| 20260904000015 | 88 | 113 | 6.0 | 13.0 | 0.00 | 0.01 | 0.00 | 61 | 1012.7 |
| 20260903235515 | 88 | 113 | 7.0 | 13.0 | 0.00 | 0.01 | 0.00 | 61 | 1012.6 |
| 20260903235016 | 88 | 135 | 7.0 | 17.0 | 0.00 | 0.01 | 0.00 | 61 | 1012.5 |
| 20260903234515 | 89 | 135 | 9.0 | 18.0 | 0.00 | 0.01 | 0.00 | 61 | 1012.3 |
| 20260903234015 | 89 | 90 | 8.0 | 18.0 | 0.00 | 0.01 | 0.00 | 61 | 1012.5 |
| 20260903233515 | 89 | 113 | 9.0 | 16.0 | 0.00 | 0.01 | 0.00 | 61 | 1012.4 |
| 20260903233037 | 89 | 113 | 8.0 | 18.0 | 0.00 | 0.01 | 0.00 | 61 | 1012.4 |
| 20260903232556 | 89 | 135 | 7.0 | 15.0 | 0.00 | 0.01 | 0.00 | 61 | 1012.3 |
| 20260903232015 | 90 | 135 | 10.0 | 20.0 | 0.00 | 0.01 | 0.00 | 61 | 1012.5 |
| 20260903231515 | 91 | 135 | 10.0 | 17.0 | 0.00 | 0.01 | 0.00 | 60 | 1012.3 |
| 20260903231015 | 91 | 113 | 7.0 | 18.0 | 0.00 | 0.01 | 0.00 | 59 | 1012.2 |
| 20260903230515 | 91 | 113 | 10.0 | 18.0 | 0.00 | 0.01 | 0.00 | 60 | 1012.2 |
| 20260903230015 | 92 | 135 | 9.0 | 19.0 | 0.00 | 0.01 | 0.00 | 60 | 1012.1 |
| 20260903225515 | 92 | 90 | 9.0 | 16.0 | 0.00 | 0.01 | 0.00 | 60 | 1012.1 |
| 20260903225015 | 93 | 113 | 9.0 | 19.0 | 0.00 | 0.01 | 0.00 | 59 | 1012.0 |
| 20260903224515 | 93 | 113 | 9.0 | 18.0 | 0.00 | 0.01 | 0.00 | 59 | 1012.1 |
| 20260903224015 | 93 | 90 | 9.0 | 16.0 | 0.00 | 0.01 | 0.00 | 58 | 1012.1 |
| 20260903223515 | 93 | 90 | 9.0 | 18.0 | 0.00 | 0.01 | 0.00 | 59 | 1012.0 |
| 20260903223015 | 93 | 90 | 12.0 | 22.0 | 0.00 | 0.01 | 0.00 | 58 | 1011.9 |
| 20260903222515 | 93 | 90 | 9.0 | 19.0 | 0.00 | 0.01 | 0.00 | 58 | 1012.0 |
| 20260903222036 | 93 | 113 | 8.0 | 19.0 | 0.00 | 0.01 | 0.00 | 58 | 1012.0 |
| 20260903221515 | 93 | 113 | 8.0 | 17.0 | 0.00 | 0.01 | 0.00 | 56 | 1012.1 |
| 20260903221015 | 94 | 90 | 9.0 | 20.0 | 0.00 | 0.01 | 0.00 | 57 | 1011.9 |
| 20260903220515 | 94 | 90 | 9.0 | 17.0 | 0.00 | 0.01 | 0.00 | 56 | 1012.1 |
| 20260903220016 | 94 | 113 | 7.0 | 15.0 | 0.00 | 0.01 | 0.00 | 55 | 1012.0 |
| 20260903215516 | 94 | 90 | 9.0 | 17.0 | 0.00 | 0.01 | 0.00 | 53 | 1011.9 |
| 20260903215015 | 94 | 90 | 10.0 | 18.0 | 0.00 | 0.01 | 0.00 | 53 | 1012.0 |
| 20260903214515 | 94 | 90 | 9.0 | 17.0 | 0.00 | 0.01 | 0.00 | 53 | 1012.0 |
| 20260903214015 | 95 | 90 | 9.0 | 21.0 | 0.00 | 0.01 | 0.00 | 52 | 1011.9 |
| 20260903213535 | 95 | 90 | 8.0 | 14.0 | 0.00 | 0.01 | 0.00 | 53 | 1012.1 |
| 20260903213036 | 95 | 90 | 9.0 | 19.0 | 0.00 | 0.01 | 0.00 | 52 | 1012.1 |
| 20260903212515 | 96 | 90 | 7.0 | 16.0 | 0.00 | 0.01 | 0.00 | 51 | 1012.1 |
| 20260903212015 | 97 | 113 | 7.0 | 15.0 | 0.00 | 0.01 | 0.00 | 50 | 1012.2 |
| 20260903211515 | 97 | 90 | 8.0 | 15.0 | 0.00 | 0.01 | 0.00 | 50 | 1012.2 |
| 20260903211015 | 97 | 90 | 9.0 | 18.0 | 0.00 | 0.01 | 0.00 | 50 | 1012.2 |
| 20260903210535 | 97 | 90 | 7.0 | 15.0 | 0.00 | 0.01 | 0.00 | 50 | 1012.3 |
| 20260903210015 | 96 | 90 | 8.0 | 16.0 | 0.00 | 0.01 | 0.00 | 52 | 1012.3 |
| 20260903205515 | 96 | 90 | 8.0 | 16.0 | 0.00 | 0.01 | 0.00 | 52 | 1012.4 |
| 20260903205015 | 96 | 90 | 8.0 | 16.0 | 0.00 | 0.01 | 0.00 | 51 | 1012.5 |
| 20260903204535 | 97 | 90 | 8.0 | 16.0 | 0.00 | 0.01 | 0.00 | 50 | 1012.6 |
| 20260903204035 | 97 | 90 | 9.0 | 15.0 | 0.00 | 0.01 | 0.00 | 50 | 1012.7 |
| 20260903203515 | 96 | 90 | 9.0 | 21.0 | 0.00 | 0.01 | 0.00 | 51 | 1012.6 |
| 20260903203035 | 96 | 113 | 6.0 | 14.0 | 0.00 | 0.01 | 0.00 | 50 | 1012.8 |
| 20260903202516 | 97 | 135 | 6.0 | 12.0 | 0.00 | 0.01 | 0.00 | 49 | 1013.0 |
| 20260903202055 | 98 | 113 | 7.0 | 16.0 | 0.00 | 0.01 | 0.00 | 49 | 1013.2 |
| 20260903201515 | 98 | 135 | 6.0 | 15.0 | 0.00 | 0.01 | 0.00 | 49 | 1013.0 |
| 20260903201015 | 98 | 90 | 6.0 | 16.0 | 0.00 | 0.01 | 0.00 | 49 | 1013.0 |
| 20260903200515 | 98 | 135 | 5.0 | 10.0 | 0.00 | 0.01 | 0.00 | 48 | 1013.1 |
| 20260903200015 | 97 | 135 | 6.0 | 15.0 | 0.00 | 0.01 | 0.00 | 48 | 1013.1 |
| 20260903195537 | 97 | 90 | 5.0 | 14.0 | 0.00 | 0.01 | 0.00 | 48 | 1013.2 |
| 20260903195015 | 96 | 158 | 3.0 | 10.0 | 0.00 | 0.01 | 0.00 | 48 | 1013.2 |
| 20260903194535 | 97 | 158 | 3.0 | 11.0 | 0.00 | 0.01 | 0.00 | 48 | 1013.2 |
| 20260903194035 | 95 | 225 | 3.0 | 8.0 | 0.00 | 0.01 | 0.00 | 52 | 1013.3 |
| 20260903193515 | 94 | 158 | 1.0 | 8.0 | 0.00 | 0.01 | 0.00 | 53 | 1013.2 |
| 20260903193035 | 94 | 158 | 3.0 | 8.0 | 0.00 | 0.01 | 0.00 | 53 | 1013.3 |
| 20260903192515 | 94 | 90 | 4.0 | 8.0 | 0.00 | 0.01 | 0.00 | 54 | 1013.4 |
| 20260903192015 | 94 | 203 | 3.0 | 8.0 | 0.00 | 0.01 | 0.00 | 51 | 1013.5 |
| 20260903191515 | 94 | 203 | 3.0 | 10.0 | 0.00 | 0.01 | 0.00 | 54 | 1013.6 |
| 20260903191035 | 94 | 180 | 3.0 | 10.0 | 0.00 | 0.01 | 0.00 | 53 | 1013.7 |
| 20260903190517 | 95 | 180 | 2.0 | 7.0 | 0.00 | 0.01 | 0.00 | 52 | 1013.6 |
| 20260903190017 | 94 | 158 | 3.0 | 8.0 | 0.00 | 0.01 | 0.00 | 52 | 1013.7 |
| 20260903185517 | 94 | 135 | 3.0 | 6.0 | 0.00 | 0.01 | 0.00 | 53 | 1013.8 |
| 20260903185017 | 93 | 158 | 3.0 | 7.0 | 0.00 | 0.01 | 0.00 | 54 | 1013.9 |
| 20260903184515 | 93 | 135 | 1.0 | 7.0 | 0.00 | 0.01 | 0.00 | 54 | 1014.1 |
| 20260903184017 | 93 | 135 | 4.0 | 8.0 | 0.00 | 0.01 | 0.00 | 53 | 1014.1 |
| 20260903183517 | 93 | 180 | 2.0 | 9.0 | 0.00 | 0.01 | 0.00 | 56 | 1014.0 |
| 20260903183017 | 93 | 180 | 2.0 | 6.0 | 0.00 | 0.01 | 0.00 | 55 | 1014.2 |
| 20260903182537 | 93 | 135 | 2.0 | 8.0 | 0.00 | 0.01 | 0.00 | 55 | 1014.2 |
| 20260903182017 | 93 | 135 | 4.0 | 8.0 | 0.00 | 0.01 | 0.00 | 55 | 1014.4 |
| 20260903181517 | 93 | 113 | 3.0 | 8.0 | 0.00 | 0.01 | 0.00 | 56 | 1014.3 |
| 20260903181018 | 93 | 90 | 3.0 | 8.0 | 0.00 | 0.01 | 0.00 | 55 | 1014.3 |
| 20260903180517 | 93 | 90 | 4.0 | 10.0 | 0.00 | 0.01 | 0.00 | 55 | 1014.4 |
| 20260903180017 | 93 | 203 | 3.0 | 8.0 | 0.00 | 0.01 | 0.00 | 56 | 1014.5 |
| 20260903175517 | 92 | 225 | 3.0 | 7.0 | 0.00 | 0.01 | 0.00 | 57 | 1014.6 |
| 20260903175017 | 93 | 135 | 3.0 | 7.0 | 0.00 | 0.01 | 0.00 | 56 | 1014.7 |
| 20260903174517 | 93 | 158 | 1.0 | 9.0 | 0.00 | 0.01 | 0.00 | 57 | 1014.6 |
| 20260903174016 | 93 | 90 | 3.0 | 8.0 | 0.00 | 0.01 | 0.00 | 55 | 1014.8 |
| 20260903173517 | 92 | 90 | 4.0 | 8.0 | 0.00 | 0.01 | 0.00 | 57 | 1015.0 |
| 20260903173017 | 92 | 158 | 2.0 | 7.0 | 0.00 | 0.01 | 0.00 | 56 | 1015.0 |
| 20260903172517 | 91 | 158 | 2.0 | 5.0 | 0.00 | 0.01 | 0.00 | 57 | 1015.2 |
| 20260903172018 | 91 | 158 | 2.0 | 6.0 | 0.00 | 0.01 | 0.00 | 58 | 1015.1 |
| 20260903171516 | 91 | 90 | 3.0 | 6.0 | 0.00 | 0.01 | 0.00 | 57 | 1015.1 |
| 20260903171016 | 91 | 158 | 3.0 | 7.0 | 0.00 | 0.01 | 0.00 | 59 | 1015.1 |
| 20260903170516 | 91 | 158 | 4.0 | 9.0 | 0.00 | 0.01 | 0.00 | 59 | 1015.0 |
| 20260903170037 | 91 | 180 | 4.0 | 9.0 | 0.00 | 0.01 | 0.00 | 58 | 1015.0 |
| 20260903165516 | 90 | 203 | 3.0 | 9.0 | 0.00 | 0.01 | 0.00 | 61 | 1015.0 |
| 20260903165017 | 90 | 225 | 4.0 | 8.0 | 0.00 | 0.01 | 0.00 | 61 | 1014.8 |
| 20260903164517 | 89 | 203 | 4.0 | 10.0 | 0.00 | 0.01 | 0.00 | 62 | 1014.9 |
| 20260903164016 | 89 | 203 | 5.0 | 9.0 | 0.00 | 0.01 | 0.00 | 62 | 1014.9 |
| 20260903163536 | 88 | 180 | 4.0 | 9.0 | 0.00 | 0.01 | 0.00 | 62 | 1015.0 |
| 20260903163016 | 88 | 203 | 5.0 | 12.0 | 0.00 | 0.01 | 0.00 | 62 | 1014.9 |
| 20260903162516 | 88 | 158 | 5.0 | 12.0 | 0.00 | 0.01 | 0.00 | 62 | 1014.8 |
| 20260903162038 | 88 | 203 | 4.0 | 9.0 | 0.00 | 0.01 | 0.00 | 63 | 1014.8 |
| 20260903161516 | 88 | 225 | 5.0 | 10.0 | 0.00 | 0.01 | 0.00 | 64 | 1014.8 |
| 20260903161017 | 88 | 248 | 5.0 | 11.0 | 0.00 | 0.01 | 0.00 | 64 | 1014.8 |
| 20260903160517 | 88 | 225 | 7.0 | 15.0 | 0.00 | 0.01 | 0.00 | 65 | 1014.8 |
| 20260903160016 | 88 | 225 | 5.0 | 14.0 | 0.00 | 0.01 | 0.00 | 64 | 1014.8 |
| 20260903155517 | 87 | 203 | 4.0 | 9.0 | 0.00 | 0.01 | 0.00 | 66 | 1014.7 |
| 20260903155016 | 87 | 158 | 5.0 | 11.0 | 0.00 | 0.01 | 0.00 | 67 | 1014.9 |
| 20260903154516 | 87 | 225 | 6.0 | 11.0 | 0.00 | 0.01 | 0.00 | 66 | 1014.8 |
| 20260903154016 | 87 | 225 | 4.0 | 12.0 | 0.00 | 0.01 | 0.00 | 67 | 1014.9 |
| 20260903153516 | 87 | 225 | 4.0 | 9.0 | 0.00 | 0.01 | 0.00 | 67 | 1014.9 |
| 20260903153017 | 87 | 225 | 5.0 | 13.0 | 0.00 | 0.01 | 0.00 | 67 | 1014.8 |
| 20260903152537 | 87 | 225 | 5.0 | 11.0 | 0.00 | 0.01 | 0.00 | 67 | 1014.9 |
| 20260903152016 | 87 | 203 | 4.0 | 12.0 | 0.00 | 0.01 | 0.00 | 68 | 1014.9 |
| 20260903151517 | 86 | 225 | 4.0 | 12.0 | 0.00 | 0.01 | 0.00 | 68 | 1014.7 |
| 20260903151016 | 86 | 225 | 2.0 | 7.0 | 0.00 | 0.01 | 0.00 | 70 | 1014.7 |
| 20260903150517 | 85 | 225 | 4.0 | 10.0 | 0.00 | 0.01 | 0.00 | 71 | 1014.6 |
| 20260903150016 | 85 | 225 | 6.0 | 13.0 | 0.00 | 0.01 | 0.00 | 71 | 1014.7 |
| 20260903145517 | 85 | 225 | 6.0 | 12.0 | 0.00 | 0.01 | 0.00 | 72 | 1014.8 |
| 20260903145016 | 85 | 225 | 6.0 | 16.0 | 0.00 | 0.01 | 0.00 | 71 | 1014.7 |
| 20260903144516 | 85 | 225 | 8.0 | 16.0 | 0.00 | 0.01 | 0.00 | 72 | 1014.7 |
| 20260903144017 | 85 | 225 | 6.0 | 15.0 | 0.00 | 0.01 | 0.00 | 71 | 1014.7 |
| 20260903143516 | 85 | 248 | 6.0 | 14.0 | 0.00 | 0.01 | 0.00 | 72 | 1014.6 |
| 20260903143016 | 85 | 248 | 6.0 | 14.0 | 0.00 | 0.01 | 0.00 | 72 | 1014.6 |
| 20260903142516 | 85 | 225 | 5.0 | 12.0 | 0.00 | 0.01 | 0.00 | 73 | 1014.6 |
| 20260903142037 | 85 | 203 | 6.0 | 15.0 | 0.00 | 0.01 | 0.00 | 74 | 1014.6 |
| 20260903141518 | 84 | 225 | 5.0 | 13.0 | 0.00 | 0.01 | 0.00 | 74 | 1014.6 |
| 20260903141036 | 84 | 225 | 8.0 | 17.0 | 0.00 | 0.01 | 0.00 | 76 | 1014.7 |
| 20260903140516 | 83 | 203 | 5.0 | 13.0 | 0.00 | 0.01 | 0.00 | 77 | 1014.7 |
| 20260903140016 | 83 | 225 | 6.0 | 16.0 | 0.00 | 0.01 | 0.00 | 77 | 1014.8 |
| 20260903135516 | 83 | 225 | 5.0 | 16.0 | 0.00 | 0.01 | 0.00 | 79 | 1014.7 |
| 20260903135016 | 82 | 225 | 4.0 | 13.0 | 0.00 | 0.01 | 0.00 | 79 | 1014.7 |
| 20260903134516 | 82 | 225 | 5.0 | 13.0 | 0.00 | 0.01 | 0.00 | 80 | 1014.7 |
| 20260903134016 | 82 | 225 | 5.0 | 11.0 | 0.00 | 0.01 | 0.00 | 81 | 1014.6 |
| 20260903133539 | 81 | 203 | 6.0 | 14.0 | 0.00 | 0.01 | 0.00 | 81 | 1014.8 |
| 20260903133016 | 81 | 203 | 5.0 | 14.0 | 0.00 | 0.01 | 0.00 | 82 | 1014.9 |
| 20260903132516 | 81 | 225 | 5.0 | 11.0 | 0.00 | 0.01 | 0.00 | 82 | 1014.9 |
| 20260903132016 | 81 | 225 | 5.0 | 9.0 | 0.00 | 0.01 | 0.00 | 82 | 1014.8 |
| 20260903131516 | 81 | 225 | 4.0 | 9.0 | 0.00 | 0.01 | 0.00 | 82 | 1014.8 |
| 20260903131016 | 81 | 203 | 4.0 | 11.0 | 0.00 | 0.01 | 0.00 | 83 | 1014.8 |
| 20260903130516 | 80 | 203 | 5.0 | 11.0 | 0.00 | 0.01 | 0.00 | 83 | 1014.8 |
| 20260903130036 | 80 | 180 | 5.0 | 13.0 | 0.00 | 0.01 | 0.00 | 83 | 1014.7 |
| 20260903125516 | 80 | 203 | 4.0 | 12.0 | 0.00 | 0.01 | 0.00 | 83 | 1014.7 |
| 20260903125016 | 80 | 203 | 3.0 | 8.0 | 0.00 | 0.01 | 0.00 | 83 | 1014.6 |
| 20260903124516 | 80 | 225 | 5.0 | 11.0 | 0.00 | 0.01 | 0.00 | 84 | 1014.5 |
| 20260903124016 | 80 | 225 | 4.0 | 9.0 | 0.00 | 0.01 | 0.00 | 84 | 1014.5 |
| 20260903123516 | 80 | 203 | 4.0 | 11.0 | 0.00 | 0.01 | 0.00 | 84 | 1014.5 |
| 20260903123016 | 80 | 203 | 5.0 | 13.0 | 0.00 | 0.01 | 0.00 | 84 | 1014.3 |
| 20260903122516 | 80 | 180 | 3.0 | 7.0 | 0.00 | 0.01 | 0.00 | 84 | 1014.3 |
| 20260903122016 | 80 | 203 | 4.0 | 16.0 | 0.00 | 0.01 | 0.00 | 84 | 1014.3 |
| 20260903121516 | 80 | 225 | 4.0 | 10.0 | 0.00 | 0.01 | 0.00 | 84 | 1014.3 |
| 20260903121017 | 80 | 180 | 4.0 | 11.0 | 0.00 | 0.01 | 0.00 | 84 | 1014.3 |
| 20260903120516 | 80 | 203 | 3.0 | 11.0 | 0.00 | 0.01 | 0.00 | 84 | 1014.4 |
| 20260903120016 | 80 | 180 | 5.0 | 11.0 | 0.00 | 0.01 | 0.00 | 84 | 1014.2 |
| 20260903115516 | 80 | 203 | 4.0 | 12.0 | 0.00 | 0.01 | 0.00 | 84 | 1014.2 |
| 20260903115016 | 80 | 203 | 5.0 | 13.0 | 0.00 | 0.01 | 0.00 | 83 | 1014.1 |
| 20260903114516 | 80 | 180 | 4.0 | 11.0 | 0.00 | 0.01 | 0.00 | 83 | 1014.0 |
| 20260903114057 | 80 | 203 | 4.0 | 16.0 | 0.00 | 0.01 | 0.00 | 83 | 1014.0 |
| 20260903113516 | 80 | 203 | 5.0 | 11.0 | 0.00 | 0.01 | 0.00 | 83 | 1014.0 |
| 20260903113016 | 80 | 203 | 5.0 | 11.0 | 0.00 | 0.01 | 0.00 | 83 | 1014.1 |
| 20260903112516 | 81 | 225 | 5.0 | 11.0 | 0.00 | 0.01 | 0.00 | 83 | 1014.3 |
| 20260903112016 | 80 | 203 | 4.0 | 11.0 | 0.00 | 0.01 | 0.00 | 83 | 1014.2 |
| 20260903111516 | 80 | 225 | 4.0 | 12.0 | 0.00 | 0.01 | 0.00 | 83 | 1014.2 |
| 20260903111017 | 80 | 225 | 5.0 | 10.0 | 0.00 | 0.01 | 0.00 | 83 | 1014.0 |
| 20260903110516 | 80 | 203 | 5.0 | 10.0 | 0.00 | 0.01 | 0.00 | 83 | 1014.0 |
| 20260903110016 | 80 | 203 | 4.0 | 9.0 | 0.00 | 0.01 | 0.00 | 83 | 1014.0 |
| 20260903105516 | 80 | 180 | 4.0 | 10.0 | 0.00 | 0.01 | 0.00 | 83 | 1014.0 |
| 20260903105016 | 80 | 180 | 4.0 | 13.0 | 0.00 | 0.01 | 0.00 | 84 | 1013.8 |
| 20260903104516 | 80 | 203 | 6.0 | 15.0 | 0.00 | 0.01 | 0.00 | 83 | 1014.1 |
| 20260903104036 | 80 | 203 | 4.0 | 10.0 | 0.00 | 0.01 | 0.00 | 83 | 1013.9 |
| 20260903103516 | 80 | 225 | 6.0 | 14.0 | 0.00 | 0.01 | 0.00 | 83 | 1014.0 |
| 20260903103016 | 80 | 203 | 5.0 | 13.0 | 0.00 | 0.01 | 0.00 | 83 | 1013.9 |
| 20260903102516 | 80 | 203 | 4.0 | 11.0 | 0.00 | 0.01 | 0.00 | 83 | 1013.8 |
| 20260903102016 | 80 | 203 | 4.0 | 11.0 | 0.00 | 0.01 | 0.00 | 83 | 1013.9 |
| 20260903101516 | 80 | 180 | 4.0 | 12.0 | 0.00 | 0.01 | 0.00 | 83 | 1013.9 |
| 20260903101016 | 80 | 225 | 5.0 | 13.0 | 0.00 | 0.01 | 0.00 | 83 | 1014.0 |
| 20260903100518 | 80 | 203 | 4.0 | 12.0 | 0.00 | 0.01 | 0.00 | 82 | 1014.0 |